KB7DZR Weather Reports


time (UTC)temp
F
wind
direction
speed
knots
gust
knots
rain 1hr
in
rain 24hr
in
rain mn
in
humidity
%
barometer
mb
20211017151504 58 113 1.7 7.8 0.00 0.00 0.00 27 1010.5
20211017150504 57 113 3.5 10.4 0.00 0.00 0.00 27 1010.5
20211017150005 57 119 4.3 8.7 0.00 0.00 0.00 28 1010.5
20211017145005 55 106 5.2 7.0 0.00 0.00 0.00 30 1010.5
20211017144004 55 104 4.3 8.7 0.00 0.00 0.00 29 1010.4
20211017143005 55 96 2.6 7.0 0.00 0.00 0.00 29 1010.3
20211017134504 36 105 0.0 0.9 0.00 0.00 0.00 56 1010.6
20211017134006 36 191 0.0 0.0 0.00 0.00 0.00 56 1010.7
20211017125004 40 268 0.9 7.8 0.00 0.00 0.00 49 1011.3
20211017123005 38 313 0.0 0.0 0.00 0.00 0.00 51 1011.5
20211017122005 40 312 1.7 8.7 0.00 0.00 0.00 49 1011.3
20211017121006 40 302 0.0 0.0 0.00 0.00 0.00 48 1011.5
20211017120504 39 301 0.0 0.0 0.00 0.00 0.00 51 1011.5
20211017120005 38 287 0.0 0.0 0.00 0.00 0.00 51 1011.6
20211017115505 38 297 0.0 0.0 0.00 0.00 0.00 50 1011.5
20211017115005 38 244 0.0 0.0 0.00 0.00 0.00 51 1011.7
20211017114505 37 225 0.0 0.0 0.00 0.00 0.00 52 1011.7
20211017113505 39 226 0.0 0.0 0.00 0.00 0.00 50 1012.0
20211017112004 38 234 0.0 0.0 0.00 0.00 0.00 51 1011.8
20211017110005 40 295 0.0 0.0 0.00 0.00 0.00 49 1012.2
20211017105004 39 287 0.0 0.0 0.00 0.00 0.00 49 1012.4
20211017104504 39 263 0.0 0.0 0.00 0.00 0.00 50 1012.5
20211017102504 40 230 0.0 0.9 0.00 0.00 0.00 47 1013.0
20211017101504 42 235 0.0 0.9 0.00 0.00 0.00 46 1013.0
20211017100504 41 283 6.1 8.7 0.00 0.00 0.00 46 1013.1
20211017093505 43 305 7.8 11.3 0.00 0.00 0.00 44 1013.3
20211017092505 44 305 10.4 12.2 0.00 0.00 0.00 42 1013.2
20211017091004 43 287 4.3 10.4 0.00 0.00 0.00 45 1013.5
20211017090505 42 247 4.3 8.7 0.00 0.00 0.00 46 1013.8
20211017085507 42 264 0.0 0.9 0.00 0.00 0.00 46 1014.1
20211017085004 43 310 1.7 8.7 0.00 0.00 0.00 45 1013.9
20211017083504 40 229 0.0 0.0 0.00 0.00 0.00 50 1014.1
20211017081505 40 285 0.0 0.0 0.00 0.00 0.00 50 1014.3
20211017081005 39 214 0.0 0.0 0.00 0.00 0.00 51 1014.5
20211017080006 40 213 0.0 0.0 0.00 0.00 0.00 49 1014.5
20211017075504 40 213 0.0 0.0 0.00 0.00 0.00 48 1014.6
20211017075004 41 213 0.0 0.9 0.00 0.00 0.00 47 1014.6
20211017073504 39 223 0.0 0.0 0.00 0.00 0.00 49 1014.7
20211017073005 40 312 0.0 0.0 0.00 0.00 0.00 48 1014.8
20211017072004 41 312 0.0 0.0 0.00 0.00 0.00 46 1014.9
20211017071004 43 314 0.0 0.0 0.00 0.00 0.00 44 1015.2
20211017065004 45 317 0.0 8.7 0.00 0.00 0.00 41 1015.3
20211017063505 43 314 8.7 10.4 0.00 0.00 0.00 44 1015.4
20211017063005 45 310 7.8 10.4 0.00 0.00 0.00 41 1015.3
20211017062504 46 318 6.1 8.7 0.00 0.00 0.00 41 1015.3
20211017062004 45 314 7.0 8.7 0.00 0.00 0.00 42 1015.4
20211017061004 46 304 7.8 10.4 0.00 0.00 0.00 40 1015.5
20211017054504 49 310 0.0 0.0 0.00 0.00 0.00 35 1015.7
20211017054005 49 310 0.0 0.9 0.00 0.00 0.00 35 1015.8
20211017052504 49 313 0.0 0.9 0.00 0.00 0.00 33 1015.9
20211017052005 49 312 0.0 0.0 0.00 0.00 0.00 34 1015.8
20211017045505 49 283 0.0 0.9 0.00 0.00 0.00 33 1016.2
20211017045005 49 294 0.0 0.0 0.00 0.00 0.00 33 1016.2
20211017043505 51 294 0.0 0.9 0.00 0.00 0.00 31 1016.4
20211017041005 55 78 0.0 1.7 0.00 0.00 0.00 27 1016.5
20211017035505 55 103 0.9 8.7 0.00 0.00 0.00 26 1016.6
20211017034005 55 70 0.0 0.9 0.00 0.00 0.00 28 1016.8
20211017033506 55 69 0.0 1.7 0.00 0.00 0.00 27 1016.9
20211017031504 53 109 0.0 0.9 0.00 0.00 0.00 30 1017.1
20211017031004 54 92 0.0 0.9 0.00 0.00 0.00 29 1017.1
20211017025005 54 109 0.0 0.9 0.00 0.00 0.00 30 1017.3
20211017023005 53 49 0.0 0.0 0.00 0.00 0.00 31 1017.4
20211017022504 54 49 0.0 0.0 0.00 0.00 0.00 29 1017.4
20211017021504 55 46 0.0 0.9 0.00 0.00 0.00 27 1017.4
20211017020005 57 73 0.9 0.9 0.00 0.00 0.00 26 1017.3
20211017015504 57 85 0.0 1.7 0.00 0.00 0.00 26 1017.3
20211017015005 56 104 0.0 7.0 0.00 0.00 0.00 26 1017.4
20211017012005 57 71 0.9 5.2 0.00 0.00 0.00 27 1017.5
20211017010005 58 73 0.9 7.8 0.00 0.00 0.00 26 1017.7
20211017005005 59 75 0.9 6.1 0.00 0.00 0.00 26 1017.7
20211017003505 61 55 0.0 0.9 0.00 0.00 0.00 24 1017.8
20211017002504 64 294 0.0 0.9 0.00 0.00 0.00 24 1017.8
20211017001005 66 194 0.0 0.9 0.00 0.00 0.00 21 1018.1
20211017000505 67 174 2.6 4.3 0.00 0.00 0.00 20 1018.1
20211016235005 68 191 0.9 6.1 0.00 0.00 0.00 20 1018.1
20211016234504 68 190 3.5 10.4 0.00 0.00 0.00 20 1018.1
20211016233504 68 213 7.0 10.4 0.00 0.00 0.00 20 1018.1
20211016233005 68 186 8.7 13.0 0.00 0.00 0.00 20 1018.2
20211016232505 68 206 7.0 10.4 0.00 0.00 0.00 20 1018.3
20211016225504 69 263 0.9 6.1 0.00 0.00 0.00 20 1018.5
20211016225005 69 52 0.0 0.9 0.00 0.00 0.00 20 1018.6
20211016224005 68 31 0.9 2.6 0.00 0.00 0.00 21 1018.6
20211016223504 68 31 0.0 2.6 0.00 0.00 0.00 22 1018.6
20211016222005 67 290 0.0 2.6 0.00 0.00 0.00 24 1018.9
20211016221005 67 290 0.0 0.0 0.00 0.00 0.00 25 1018.9
20211016220505 66 290 0.0 0.9 0.00 0.00 0.00 26 1018.9
20211016214504 65 289 0.9 2.6 0.00 0.00 0.00 27 1019.2
20211016214005 65 289 0.9 4.3 0.00 0.00 0.00 27 1019.3
20211016212505 65 286 3.5 7.0 0.00 0.00 0.00 31 1019.6
20211016210005 64 309 5.2 7.0 0.00 0.00 0.00 31 1019.8
20211016204504 62 315 4.3 8.7 0.00 0.00 0.00 32 1020.0
20211016203505 61 296 4.3 7.8 0.00 0.00 0.00 33 1020.2
20211016202505 61 313 2.6 6.1 0.00 0.00 0.00 33 1020.3
20211016201504 60 311 0.9 6.1 0.00 0.00 0.00 39 1020.4
20211016201005 60 311 1.7 4.3 0.00 0.00 0.00 33 1020.6
20211016195504 58 308 5.2 7.8 0.00 0.00 0.00 38 1020.6
20211016195005 58 304 2.6 6.1 0.00 0.00 0.00 39 1020.9
20211016192005 56 301 7.0 10.4 0.00 0.00 0.00 39 1021.2
20211016191505 56 297 5.2 8.7 0.00 0.00 0.00 38 1021.3
20211016190505 56 288 6.1 10.4 0.00 0.00 0.00 40 1021.4
20211016185504 55 312 6.1 10.4 0.00 0.00 0.00 39 1021.4
20211016185005 55 307 6.1 10.4 0.00 0.00 0.00 40 1021.4
20211016182504 53 315 5.2 8.7 0.00 0.00 0.00 43 1021.7
20211016181005 51 295 1.7 4.3 0.00 0.00 0.00 43 1021.8
20211016180504 50 294 0.0 0.9 0.00 0.00 0.00 46 1021.8
20211016180004 50 294 0.0 0.9 0.00 0.00 0.00 46 1021.7
20211016175005 49 294 0.9 2.6 0.00 0.00 0.00 47 1021.9
20211016174004 49 294 0.0 6.1 0.00 0.00 0.00 48 1022.0
20211016172004 47 294 1.7 4.3 0.00 0.00 0.00 49 1022.1
20211016171505 46 295 0.9 5.2 0.00 0.00 0.00 50 1022.2
20211016170004 45 311 2.6 4.3 0.00 0.00 0.00 52 1022.3
20211016165504 45 312 0.0 4.3 0.00 0.00 0.00 54 1022.3
20211016163005 42 126 0.0 0.0 0.00 0.00 0.00 60 1022.4
20211016162504 42 126 0.0 0.0 0.00 0.00 0.00 62 1022.4
20211016162005 41 126 0.0 0.0 0.00 0.00 0.00 67 1022.3
20211016161005 39 126 0.0 0.0 0.00 0.00 0.00 70 1022.4
20211016160004 38 126 0.0 0.0 0.00 0.00 0.00 71 1022.5
20211016155004 36 126 0.0 0.0 0.00 0.00 0.00 73 1022.6
20211016152504 32 133 0.0 0.0 0.00 0.00 0.00 78 1022.7